Find Starlink 5879

NORAD ID: 57153 Int'l Des: 2023-090 Owner: SPXS Country: US Constellation: starlink operational
LEOCIRCULAR

Current View

Loading 3D Globe...

About Starlink 5879

Description loading...

Upcoming Passes

Passes for default location (London). Set your location on the main map for personalized predictions.

Altitude History

Loading altitude history...

Two-Line Element Set

1 57153U 23090BE 26149.06878102 .00000266 00000-0 19196-4 0 9993
2 57153 43.0029 158.3209 0001694 318.1658 41.9064 15.27587545162463
Epoch: May 29, 2026 • Age: 28 hours

Current Status

Altitude 489.2 km
Velocity 7.62 km/s
Sub-Earth Point -28.20°S, 143.47°E
Launch Date Jun 23, 2023
Age 2.9 years
Type internet

Technical Details

Classification Payload
Mass 305.00 kg
Dry Mass 290.00 kg
Total Mass 305.00 kg
Length 0.20 m
Diameter 2.80 m
Span 9.00 m
Shape Box + pan
Manufacturer SPXS
Bus Type Starlink
Phase Status In Orbit
Owner/State SPXS/US

Most Searched